AAL993 KCLT-KRIC

Flight info

Callsign AAL993
Flight time 0h 40m
Altitude 35000
Route BARMY5 RDU NEAVL DUCXS5
Aircraft A320/M-SDE3FGHIRWY/LB1

Departure

Time 2026-04-24 03:51
Airport Charlotte Douglas International Airport (KCLT)

Arrival

Time 2026-04-24 04:31
Airport Richmond International Airport (KRIC)
Time Latitude Longitude Altitude Speed Heading
2026-04-24 03:32 35.21830 -80.94285 758 ft 0 kts 96°
2026-04-24 03:42 35.21831 -80.94298 758 ft 2 kts 96°
2026-04-24 03:42 35.21833 -80.94316 758 ft 2 kts 101°
2026-04-24 03:42 35.21838 -80.94334 758 ft 2 kts 117°
2026-04-24 03:43 35.21846 -80.94349 758 ft 2 kts 130°
2026-04-24 03:43 35.21857 -80.94362 758 ft 2 kts 144°
2026-04-24 03:43 35.21870 -80.94371 758 ft 2 kts 157°
2026-04-24 03:43 35.21877 -80.94374 758 ft 1 kts 165°
2026-04-24 03:44 35.21880 -80.94375 758 ft 0 kts 163°
2026-04-24 03:45 35.21862 -80.94369 758 ft 4 kts 163°
2026-04-24 03:45 35.21817 -80.94350 758 ft 9 kts 161°
2026-04-24 03:46 35.21775 -80.94343 758 ft 9 kts 176°
2026-04-24 03:46 35.21760 -80.94342 758 ft 10 kts 176°
2026-04-24 03:46 35.21684 -80.94334 758 ft 11 kts 170°
2026-04-24 03:46 35.21639 -80.94258 758 ft 13 kts 95°
2026-04-24 03:47 35.21652 -80.94160 758 ft 11 kts 53°
2026-04-24 03:47 35.21710 -80.94081 758 ft 13 kts 48°
2026-04-24 03:47 35.21769 -80.93999 758 ft 14 kts 48°
2026-04-24 03:47 35.21797 -80.93962 758 ft 15 kts 48°
2026-04-24 03:48 35.21829 -80.93919 758 ft 15 kts 48°
2026-04-24 03:48 35.21905 -80.93813 758 ft 17 kts 49°
2026-04-24 03:48 35.21981 -80.93714 758 ft 13 kts 28°
2026-04-24 03:48 35.22082 -80.93713 758 ft 15 kts 355°
2026-04-24 03:49 35.22195 -80.93722 758 ft 17 kts 356°
2026-04-24 03:49 35.22319 -80.93733 758 ft 18 kts 356°
2026-04-24 03:49 35.22453 -80.93743 758 ft 15 kts 356°
2026-04-24 03:49 35.22512 -80.93690 758 ft 8 kts 85°
2026-04-24 03:50 35.22494 -80.93620 758 ft 10 kts 153°
2026-04-24 03:50 35.22464 -80.93613 758 ft 0 kts 176°
2026-04-24 03:50 35.22263 -80.93595 758 ft 74 kts 175°
2026-04-24 03:50 35.21434 -80.93601 760 ft 157 kts 185°
2026-04-24 03:51 35.20255 -80.93523 1440 ft 177 kts 175°
2026-04-24 03:51 35.19019 -80.93372 2341 ft 188 kts 176°
2026-04-24 03:51 35.17704 -80.93205 3208 ft 201 kts 176°
2026-04-24 03:51 35.16264 -80.93006 3918 ft 223 kts 176°
2026-04-24 03:52 35.14685 -80.92632 4725 ft 245 kts 159°
2026-04-24 03:52 35.13256 -80.91327 5460 ft 272 kts 130°
2026-04-24 03:52 35.12438 -80.89214 6352 ft 289 kts 103°
2026-04-24 03:52 35.12470 -80.86720 7326 ft 300 kts 76°
2026-04-24 03:53 35.13160 -80.84304 8292 ft 307 kts 69°
2026-04-24 03:53 35.13941 -80.81889 9236 ft 313 kts 69°
2026-04-24 03:53 35.14749 -80.79386 10188 ft 320 kts 68°
2026-04-24 03:53 35.15580 -80.76799 10854 ft 336 kts 68°
2026-04-24 03:54 35.16465 -80.74040 11252 ft 360 kts 68°
2026-04-24 03:54 35.17403 -80.71112 11684 ft 380 kts 68°
2026-04-24 03:54 35.18374 -80.68078 12371 ft 389 kts 68°
2026-04-24 03:54 35.19354 -80.65008 13127 ft 394 kts 68°
2026-04-24 03:55 35.20360 -80.61851 13880 ft 399 kts 68°
2026-04-24 03:55 35.21365 -80.58691 14595 ft 404 kts 68°
2026-04-24 03:55 35.22382 -80.55492 15286 ft 410 kts 68°
2026-04-24 03:55 35.23413 -80.52248 15958 ft 415 kts 68°
2026-04-24 03:56 35.24469 -80.48921 16621 ft 420 kts 69°
2026-04-24 03:56 35.25336 -80.45507 17256 ft 424 kts 79°
2026-04-24 03:56 35.25829 -80.41943 17871 ft 428 kts 82°
2026-04-24 03:56 35.26297 -80.38367 18471 ft 432 kts 82°
2026-04-24 03:57 35.26778 -80.34696 19064 ft 437 kts 83°
2026-04-24 03:57 35.27259 -80.31035 19631 ft 441 kts 83°
2026-04-24 03:57 35.27749 -80.27290 20183 ft 445 kts 83°
2026-04-24 03:57 35.28232 -80.23594 20712 ft 449 kts 83°
2026-04-24 03:58 35.28725 -80.19817 21229 ft 453 kts 83°
2026-04-24 03:58 35.29224 -80.15979 21730 ft 457 kts 83°
2026-04-24 03:58 35.29726 -80.12128 22218 ft 461 kts 82°
2026-04-24 03:58 35.30483 -80.08273 22701 ft 466 kts 73°
2026-04-24 03:59 35.31561 -80.04558 23226 ft 468 kts 71°
2026-04-24 03:59 35.32661 -80.00821 23882 ft 466 kts 71°
2026-04-24 03:59 35.33752 -79.97093 24495 ft 466 kts 71°
2026-04-24 03:59 35.34845 -79.93348 24917 ft 465 kts 71°
2026-04-24 04:00 35.35935 -79.89606 25069 ft 465 kts 71°
2026-04-24 04:00 35.37019 -79.85883 25079 ft 467 kts 72°
2026-04-24 04:00 35.38121 -79.82091 25065 ft 482 kts 71°
2026-04-24 04:00 35.39259 -79.78185 25057 ft 497 kts 71°
2026-04-24 04:01 35.40439 -79.74128 25052 ft 510 kts 71°
2026-04-24 04:01 35.41636 -79.70007 25047 ft 521 kts 71°
2026-04-24 04:01 35.42864 -79.65769 25043 ft 531 kts 71°
2026-04-24 04:01 35.44113 -79.61454 25043 ft 540 kts 71°
2026-04-24 04:02 35.45361 -79.57130 25046 ft 543 kts 71°
2026-04-24 04:02 35.46614 -79.52783 25047 ft 543 kts 71°
2026-04-24 04:02 35.47867 -79.48425 25046 ft 543 kts 71°
2026-04-24 04:02 35.49128 -79.44033 25045 ft 543 kts 71°
2026-04-24 04:03 35.50371 -79.39699 25045 ft 542 kts 71°
2026-04-24 04:03 35.51622 -79.35331 25042 ft 542 kts 71°
2026-04-24 04:03 35.52880 -79.30933 25039 ft 541 kts 72°
2026-04-24 04:03 35.54114 -79.26613 25038 ft 541 kts 72°
2026-04-24 04:04 35.55356 -79.22257 25037 ft 541 kts 72°
2026-04-24 04:04 35.56599 -79.17892 25036 ft 541 kts 72°
2026-04-24 04:04 35.57903 -79.13588 25038 ft 542 kts 67°
2026-04-24 04:04 35.59688 -79.09513 25039 ft 542 kts 56°
2026-04-24 04:05 35.62022 -79.05894 25038 ft 540 kts 45°
2026-04-24 04:05 35.64746 -79.02766 25035 ft 537 kts 40°
2026-04-24 04:05 35.67570 -78.99717 25037 ft 537 kts 40°
2026-04-24 04:05 35.70347 -78.96717 25036 ft 537 kts 40°
2026-04-24 04:06 35.73147 -78.93682 25034 ft 537 kts 40°
2026-04-24 04:06 35.75953 -78.90635 25032 ft 539 kts 40°
2026-04-24 04:06 35.78768 -78.87576 25030 ft 539 kts 40°
2026-04-24 04:06 35.81551 -78.84549 25029 ft 540 kts 40°
2026-04-24 04:07 35.84353 -78.81499 25029 ft 540 kts 40°
2026-04-24 04:07 35.87219 -78.78468 25029 ft 540 kts 37°
2026-04-24 04:07 35.90183 -78.75668 25029 ft 539 kts 34°
2026-04-24 04:07 35.93173 -78.72951 25029 ft 539 kts 34°
2026-04-24 04:08 35.96185 -78.70202 25029 ft 538 kts 34°
2026-04-24 04:08 35.99188 -78.67460 25029 ft 539 kts 34°
2026-04-24 04:08 36.02195 -78.64710 25029 ft 539 kts 34°
2026-04-24 04:08 36.05180 -78.61979 25028 ft 538 kts 34°
2026-04-24 04:09 36.08187 -78.59225 25028 ft 538 kts 34°
2026-04-24 04:09 36.11209 -78.56455 25026 ft 538 kts 34°
2026-04-24 04:09 36.14176 -78.53734 25026 ft 538 kts 34°
2026-04-24 04:09 36.17197 -78.50959 25028 ft 539 kts 34°
2026-04-24 04:10 36.20181 -78.48216 25028 ft 538 kts 34°
2026-04-24 04:10 36.23149 -78.45484 25035 ft 521 kts 34°
2026-04-24 04:10 36.25972 -78.42879 25036 ft 501 kts 34°
2026-04-24 04:11 36.31365 -78.37897 24944 ft 466 kts 34°
2026-04-24 04:11 36.33895 -78.35559 24757 ft 453 kts 34°
2026-04-24 04:11 36.36424 -78.33222 24382 ft 446 kts 35°
2026-04-24 04:11 36.38866 -78.30966 23914 ft 441 kts 35°
2026-04-24 04:12 36.41304 -78.28712 23369 ft 434 kts 34°
2026-04-24 04:12 36.43708 -78.26485 22543 ft 425 kts 34°
2026-04-24 04:12 36.46011 -78.24349 21981 ft 410 kts 34°
2026-04-24 04:12 36.48244 -78.22276 21512 ft 394 kts 34°
2026-04-24 04:13 36.50398 -78.20274 21050 ft 380 kts 34°
2026-04-24 04:13 36.52478 -78.18339 20617 ft 369 kts 34°
2026-04-24 04:13 36.54506 -78.16454 20207 ft 368 kts 34°
2026-04-24 04:13 36.56555 -78.14549 19779 ft 366 kts 34°
2026-04-24 04:14 36.58593 -78.12654 19353 ft 364 kts 34°
2026-04-24 04:14 36.60606 -78.10782 18932 ft 363 kts 34°
2026-04-24 04:14 36.62602 -78.08922 18511 ft 361 kts 34°
2026-04-24 04:14 36.64602 -78.07057 18088 ft 360 kts 34°
2026-04-24 04:15 36.66588 -78.05203 17666 ft 358 kts 34°
2026-04-24 04:15 36.68595 -78.03329 17238 ft 357 kts 34°
2026-04-24 04:15 36.70542 -78.01510 16822 ft 355 kts 34°
2026-04-24 04:15 36.72528 -77.99652 16409 ft 353 kts 34°
2026-04-24 04:16 36.74466 -77.97839 15979 ft 352 kts 34°
2026-04-24 04:16 36.76420 -77.96008 15548 ft 350 kts 34°
2026-04-24 04:16 36.78348 -77.94201 15128 ft 349 kts 34°
2026-04-24 04:16 36.80278 -77.92392 14707 ft 347 kts 34°
2026-04-24 04:17 36.82194 -77.90594 14284 ft 346 kts 34°
2026-04-24 04:17 36.84103 -77.88802 13860 ft 344 kts 34°
2026-04-24 04:17 36.86013 -77.87007 13437 ft 343 kts 34°
2026-04-24 04:17 36.86470 -77.86578 13335 ft 342 kts 34°
2026-04-24 04:18 36.88364 -77.84797 12915 ft 341 kts 34°
2026-04-24 04:18 36.90257 -77.83015 12499 ft 339 kts 34°
2026-04-24 04:18 36.92122 -77.81259 12087 ft 337 kts 34°
2026-04-24 04:18 36.93988 -77.79501 11676 ft 335 kts 34°
2026-04-24 04:19 36.95835 -77.77760 11288 ft 333 kts 34°
2026-04-24 04:19 36.97667 -77.76047 11087 ft 323 kts 32°
2026-04-24 04:19 36.99546 -77.74573 10785 ft 319 kts 27°
2026-04-24 04:19 37.01442 -77.73166 10454 ft 316 kts 27°
2026-04-24 04:20 37.03313 -77.71768 10155 ft 312 kts 27°
2026-04-24 04:20 37.05153 -77.70391 9890 ft 308 kts 27°
2026-04-24 04:20 37.06984 -77.69020 9569 ft 306 kts 27°
2026-04-24 04:20 37.08795 -77.67670 9259 ft 303 kts 27°
2026-04-24 04:21 37.10583 -77.66338 8952 ft 299 kts 27°
2026-04-24 04:21 37.12352 -77.65018 8641 ft 295 kts 27°
2026-04-24 04:21 37.13980 -77.63451 8319 ft 296 kts 47°
2026-04-24 04:21 37.15080 -77.61289 8017 ft 295 kts 59°
2026-04-24 04:22 37.16025 -77.59025 7683 ft 293 kts 60°
2026-04-24 04:22 37.16892 -77.56726 7389 ft 291 kts 64°
2026-04-24 04:22 37.17680 -77.54417 7104 ft 289 kts 64°
2026-04-24 04:22 37.18469 -77.52097 6816 ft 287 kts 64°
2026-04-24 04:23 37.19247 -77.49822 6531 ft 284 kts 64°
2026-04-24 04:23 37.20027 -77.47545 6244 ft 282 kts 64°
2026-04-24 04:23 37.20796 -77.45299 5957 ft 279 kts 64°
2026-04-24 04:23 37.21556 -77.43072 5671 ft 275 kts 64°
2026-04-24 04:24 37.22301 -77.40893 5387 ft 272 kts 63°
2026-04-24 04:24 37.23040 -77.38731 5101 ft 268 kts 63°
2026-04-24 04:24 37.23799 -77.36593 4811 ft 265 kts 66°
2026-04-24 04:24 37.24652 -77.34553 4435 ft 266 kts 64°
2026-04-24 04:25 37.25557 -77.32501 3991 ft 269 kts 63°
2026-04-24 04:25 37.26459 -77.30449 3542 ft 272 kts 64°
2026-04-24 04:25 37.27364 -77.28369 3090 ft 274 kts 64°
2026-04-24 04:25 37.28281 -77.26241 2634 ft 277 kts 64°
2026-04-24 04:26 37.29175 -77.24150 2226 ft 267 kts 64°
2026-04-24 04:26 37.30131 -77.22240 2056 ft 253 kts 51°
2026-04-24 04:26 37.31428 -77.20715 2024 ft 258 kts 41°
2026-04-24 04:26 37.32833 -77.19284 2022 ft 259 kts 40°
2026-04-24 04:27 37.34259 -77.17934 2020 ft 261 kts 29°
2026-04-24 04:27 37.36056 -77.17490 2025 ft 266 kts 353°
2026-04-24 04:27 37.37691 -77.18381 2027 ft 255 kts 317°
2026-04-24 04:27 37.38784 -77.20040 2027 ft 241 kts 307°
2026-04-24 04:28 37.39796 -77.21644 2027 ft 229 kts 308°
2026-04-24 04:28 37.40775 -77.23168 2021 ft 213 kts 310°
2026-04-24 04:28 37.41817 -77.24388 1956 ft 201 kts 323°
2026-04-24 04:28 37.42953 -77.25356 1755 ft 191 kts 326°
2026-04-24 04:29 37.44026 -77.26232 1501 ft 177 kts 327°
2026-04-24 04:29 37.45007 -77.27023 1245 ft 160 kts 327°
2026-04-24 04:29 37.45897 -77.27737 1033 ft 145 kts 327°
2026-04-24 04:29 37.46724 -77.28400 855 ft 138 kts 327°
2026-04-24 04:30 37.47530 -77.29047 678 ft 137 kts 328°
2026-04-24 04:30 37.48332 -77.29690 496 ft 136 kts 328°
2026-04-24 04:30 37.49132 -77.30330 301 ft 135 kts 328°
2026-04-24 04:30 37.49917 -77.30956 161 ft 127 kts 329°
2026-04-24 04:31 37.50433 -77.31354 164 ft 47 kts 323°
2026-04-24 04:31 37.50692 -77.31583 164 ft 46 kts 324°
2026-04-24 04:31 37.50850 -77.31807 164 ft 24 kts 293°